Fort Collins, CO

9:34 PM MDT on May 26, 2017 (GMT -0600)
Fort Collins-Loveland Municipal

Weather History for KFNL - January, 2014

Change the Weather History Date:

Sunday, January 19, 2014

  Actual Average Record
Temperature  
Mean Temperature 43 °F -  
Max Temperature 62 °F - 66 °F (2003)
Min Temperature 24 °F - 1 °F (2007)
Degree Days  
Heating Degree Days 22    
Month to date heating degree days  
Cooling Degree Days 0    
Month to date cooling degree days  
Moisture  
Dew Point 17 °F    
Average Humidity 39    
Maximum Humidity 80    
Minimum Humidity 20    
Precipitation  
Precipitation 0.00 in - 0.51 in (2005)
Sea Level Pressure  
Sea Level Pressure 30.02 in    
Wind  
Wind Speed 5 mph (South)    
Max Wind Speed 17 mph    
Max Gust Speed 18 mph    
Visibility 10 miles    
Events      
T = Trace of Precipitation, MM = Missing Value Source: NWS Daily Summary

Daily Weather History Graph

Daily Weather History Graph

Search for Another Location

Airport or City:

Trip Planner

Search our weather history database for the weather conditions in past years. The results will help you decide how hot, cold, wet, or windy it might be!

Date:

Astronomy

Jan. 19, 2014 Rise Set
Actual Time 7:19 AM MST 5:02 PM MST
Civil Twilight 6:49 AM MST 5:32 PM MST
Nautical Twilight 6:16 AM MST 6:05 PM MST
Astronomical Twilight 5:43 AM MST 6:38 PM MST
Moon 8:44 PM MST (1/19) 8:49 AM MST (1/19)
Length of Visible Light 10h 42m
Length of Day
9h 43m
Waning Gibbous, 89% of the Moon is Illuminated
Jan 19
Waning Gibbous
Jan 23
Last Quarter
Jan 30
New
Feb 6
First Quarter
Feb 14
Full

Hourly Weather History & Observations

Time (MST) Temp. Windchill Dew Point Humidity Pressure Visibility Wind Dir Wind Speed Gust Speed Precip Events Conditions
12:15 AM 30.2 °F - 15.8 °F 55% 30.09 in 10.0 mi Calm Calm - N/A   Clear
12:35 AM 28.4 °F 22.2 °F 15.8 °F 59% 30.08 in 10.0 mi South 5.8 mph - N/A   Clear
12:55 AM 26.6 °F 19.1 °F 14.0 °F 59% 30.07 in 10.0 mi South 6.9 mph - N/A   Clear
1:15 AM 28.4 °F 23.3 °F 15.8 °F 59% 30.06 in 10.0 mi South 4.6 mph - N/A   Clear
1:35 AM 32.0 °F 27.5 °F 15.8 °F 51% 30.06 in 10.0 mi South 4.6 mph - N/A   Clear
1:55 AM 30.2 °F - 14.0 °F 51% 30.06 in 10.0 mi Calm Calm - N/A   Clear
2:15 AM 24.8 °F 19.1 °F 10.4 °F 54% 30.07 in 10.0 mi North 4.6 mph - N/A   Clear
2:35 AM 24.8 °F 17.9 °F 14.0 °F 64% 30.07 in 10.0 mi NE 5.8 mph - N/A   Clear
2:55 AM 33.8 °F - 15.8 °F 48% 30.06 in 10.0 mi Calm Calm - N/A   Clear
3:15 AM 28.4 °F - 15.8 °F 59% 30.05 in 10.0 mi Calm Calm - N/A   Clear
3:35 AM 24.8 °F 20.5 °F 10.4 °F 54% 30.05 in 10.0 mi South 3.5 mph - N/A   Clear
3:55 AM 24.8 °F - 12.2 °F 59% 30.05 in 10.0 mi Calm Calm - N/A   Clear
4:15 AM 26.6 °F - 17.6 °F 69% 30.05 in 10.0 mi Calm Calm - N/A   Clear
4:35 AM 24.8 °F - 12.2 °F 59% 30.05 in 10.0 mi Calm Calm - N/A   Clear
4:55 AM 24.8 °F 17.9 °F 12.2 °F 59% 30.05 in 10.0 mi WSW 5.8 mph - N/A   Clear
5:15 AM 24.8 °F 17.9 °F 19.4 °F 80% 30.04 in 10.0 mi WSW 5.8 mph - N/A   Clear
5:35 AM 28.4 °F 21.2 °F 15.8 °F 59% 30.05 in 10.0 mi SW 6.9 mph - N/A   Clear
5:55 AM 24.8 °F 20.5 °F 14.0 °F 64% 30.04 in 10.0 mi SSE 3.5 mph - N/A   Clear
6:15 AM 30.2 °F 25.4 °F 12.2 °F 47% 30.04 in 10.0 mi SSE 4.6 mph - N/A   Clear
6:35 AM 28.4 °F 20.4 °F 15.8 °F 59% 30.04 in 10.0 mi NE 8.1 mph - N/A   Clear
6:55 AM 30.2 °F 22.6 °F 15.8 °F 55% 30.04 in 10.0 mi SE 8.1 mph - N/A   Clear
7:15 AM 35.6 °F 29.9 °F 12.2 °F 38% 30.04 in 10.0 mi South 6.9 mph - N/A   Clear
7:35 AM 30.2 °F 24.3 °F 12.2 °F 47% 30.04 in 10.0 mi SSE 5.8 mph - N/A   Clear
7:55 AM 28.4 °F 23.3 °F 12.2 °F 51% 30.04 in 10.0 mi SE 4.6 mph - N/A   Clear
8:15 AM 32.0 °F 24.8 °F 15.8 °F 51% 30.03 in 10.0 mi SSE 8.1 mph - N/A   Clear
8:35 AM 35.6 °F 29.9 °F 19.4 °F 52% 30.04 in 10.0 mi ESE 6.9 mph - N/A   Clear
8:55 AM 39.2 °F 32.5 °F 21.2 °F 49% 30.04 in 10.0 mi ESE 10.4 mph - N/A   Clear
9:15 AM 44.6 °F 41.4 °F 21.2 °F 39% 30.04 in 10.0 mi SE 5.8 mph - N/A   Clear
9:35 AM 44.6 °F 37.8 °F 21.2 °F 39% 30.06 in 10.0 mi NNE 15.0 mph 18.4 mph N/A   Clear
9:55 AM 42.8 °F 38.0 °F 17.6 °F 36% 30.06 in 10.0 mi ENE 8.1 mph - N/A   Clear
10:15 AM 46.4 °F 45.2 °F 19.4 °F 34% 30.06 in 10.0 mi ENE 3.5 mph - N/A   Clear
10:35 AM 53.6 °F - 19.4 °F 26% 30.06 in 10.0 mi ENE 9.2 mph - N/A   Clear
10:55 AM 50.0 °F - 21.2 °F 32% 30.06 in 10.0 mi SE 5.8 mph - N/A   Clear
11:15 AM 46.4 °F 41.9 °F 23.0 °F 40% 30.05 in 10.0 mi ESE 9.2 mph - N/A   Clear
11:35 AM 51.8 °F - 23.0 °F 33% 30.04 in 10.0 mi South 5.8 mph - N/A   Clear
11:55 AM 51.8 °F - 24.8 °F 35% 30.03 in 10.0 mi SSW 4.6 mph - N/A   Clear
12:15 PM 53.6 °F - 26.6 °F 35% 30.02 in 10.0 mi West 3.5 mph - N/A   Clear
12:35 PM 55.4 °F - 24.8 °F 31% 30.01 in 10.0 mi Calm Calm - N/A   Clear
12:55 PM 59.0 °F - 21.2 °F 23% 30.00 in 10.0 mi Calm Calm - N/A   Clear
1:15 PM 62.6 °F - 21.2 °F 20% 29.99 in 10.0 mi ENE 6.9 mph - N/A   Clear
1:35 PM 60.8 °F - 19.4 °F 20% 29.98 in 10.0 mi ESE 8.1 mph - N/A   Clear
1:55 PM 60.8 °F - 21.2 °F 22% 29.98 in 10.0 mi East 6.9 mph - N/A   Clear
2:15 PM 60.8 °F - 19.4 °F 20% 29.97 in 10.0 mi SE 4.6 mph - N/A   Clear
2:35 PM 60.8 °F - 21.2 °F 22% 29.97 in 10.0 mi SE 6.9 mph - N/A   Clear
2:55 PM 60.8 °F - 26.6 °F 27% 29.98 in 10.0 mi SSE 5.8 mph - N/A   Clear
3:15 PM 59.0 °F - 26.6 °F 29% 29.98 in 10.0 mi SSE 8.1 mph - N/A   Clear
3:35 PM 57.2 °F - 24.8 °F 29% 29.99 in 10.0 mi South 8.1 mph - N/A   Clear
3:55 PM 57.2 °F - 24.8 °F 29% 29.99 in 10.0 mi South 5.8 mph - N/A   Clear
4:15 PM 55.4 °F - 26.6 °F 33% 29.98 in 10.0 mi South 5.8 mph - N/A   Clear
4:55 PM 50.0 °F - 21.2 °F 32% 29.98 in 10.0 mi South 8.1 mph - N/A   Clear
5:15 PM 51.8 °F - 23.0 °F 33% 29.99 in 10.0 mi South 5.8 mph - N/A   Clear
5:35 PM 51.8 °F - 19.4 °F 28% 29.99 in 10.0 mi South 6.9 mph - N/A   Clear
5:55 PM 48.2 °F - 19.4 °F 32% 29.99 in 10.0 mi SSW 5.8 mph - N/A   Clear
6:15 PM 48.2 °F - 17.6 °F 30% 29.99 in 10.0 mi SW 3.5 mph - N/A   Clear
6:35 PM 48.2 °F - 17.6 °F 30% 29.99 in 10.0 mi Calm Calm - N/A   Clear
6:55 PM 48.2 °F - 17.6 °F 30% 29.99 in 10.0 mi Calm Calm - N/A   Clear
7:15 PM 42.8 °F 38.6 °F 15.8 °F 34% 30.00 in 10.0 mi NE 6.9 mph - N/A   Clear
7:35 PM 46.4 °F - 17.6 °F 32% 29.99 in 10.0 mi Calm Calm - N/A   Clear
7:55 PM 46.4 °F 45.2 °F 15.8 °F 29% 29.98 in 10.0 mi SW 3.5 mph - N/A   Clear
8:15 PM 42.8 °F 41.1 °F 15.8 °F 34% 29.98 in 10.0 mi East 3.5 mph - N/A   Clear
8:35 PM 46.4 °F 44.3 °F 15.8 °F 29% 29.98 in 10.0 mi WSW 4.6 mph - N/A   Clear
8:55 PM 44.6 °F 40.2 °F 14.0 °F 29% 29.98 in 10.0 mi West 8.1 mph - N/A   Clear
9:15 PM 48.2 °F - 12.2 °F 24% 29.98 in 10.0 mi West 3.5 mph - N/A   Clear
9:35 PM 46.4 °F 40.7 °F 12.2 °F 25% 29.97 in 10.0 mi WSW 12.7 mph - N/A   Clear
9:55 PM 46.4 °F 40.1 °F 12.2 °F 25% 29.97 in 10.0 mi WSW 15.0 mph - N/A   Clear
10:15 PM 48.2 °F - 12.2 °F 24% 29.97 in 10.0 mi West 17.3 mph - N/A   Clear
10:35 PM 48.2 °F - 12.2 °F 24% 29.97 in 10.0 mi West 12.7 mph - N/A   Clear
10:55 PM 48.2 °F - 10.4 °F 22% 29.97 in 10.0 mi WSW 6.9 mph - N/A   Clear
11:15 PM 44.6 °F 40.7 °F 10.4 °F 25% 29.99 in 10.0 mi NNW 6.9 mph - N/A   Clear
11:35 PM 46.4 °F 41.5 °F 12.2 °F 25% 29.99 in 10.0 mi WNW 10.4 mph - N/A   Clear
11:55 PM 46.4 °F - 10.4 °F 23% 29.99 in 10.0 mi Calm Calm - N/A   Clear